Time,TemperatureF,DewpointF,PressureIn,WindDirection,WindDirectionDegrees,WindSpeedMPH,WindSpeedGustMPH,Humidity,HourlyPrecipIn,Conditions,Clouds,dailyrainin,SoftwareType,DateUTC
2013-09-30 00:09:00,49.6,43.7,29.29,ENE,67,6.3,-999.0,80,-99.99,,,0.01,Acu-Link.com,2013-09-30 07:09:00,
2013-09-30 00:24:00,49.6,43.7,29.29,ENE,67,2.2,-999.0,80,-99.99,,,0.01,Acu-Link.com,2013-09-30 07:24:00,
2013-09-30 00:39:00,50.0,43.7,29.29,SSE,157,8.3,-999.0,79,-99.99,,,0.01,Acu-Link.com,2013-09-30 07:39:00,
2013-09-30 00:55:00,50.4,43.8,29.29,SW,225,4.2,-999.0,78,-99.99,,,0.02,Acu-Link.com,2013-09-30 07:55:00,
2013-09-30 01:10:00,50.2,44.3,29.29,East,90,5.3,-999.0,80,-99.99,,,0.02,Acu-Link.com,2013-09-30 08:10:00,
2013-09-30 01:25:00,50.2,44.3,29.29,SSE,157,2.7,-999.0,80,-99.99,,,0.02,Acu-Link.com,2013-09-30 08:25:00,
2013-09-30 01:41:00,50.4,44.8,29.30,ENE,67,4.2,-999.0,81,-99.99,,,0.02,Acu-Link.com,2013-09-30 08:41:00,
2013-09-30 01:56:00,50.4,44.8,29.30,SSE,157,4.2,-999.0,81,-99.99,,,0.02,Acu-Link.com,2013-09-30 08:56:00,
2013-09-30 02:11:00,50.0,45.4,29.32,ENE,67,4.2,-999.0,84,-99.99,,,0.04,Acu-Link.com,2013-09-30 09:11:00,
2013-09-30 02:28:00,50.0,45.7,29.31,SSE,157,3.2,-999.0,85,-99.99,,,0.04,Acu-Link.com,2013-09-30 09:28:00,
2013-09-30 02:43:00,50.0,45.7,29.30,WSW,247,1.1,-999.0,85,-99.99,,,0.05,Acu-Link.com,2013-09-30 09:43:00,
2013-09-30 02:58:00,50.0,45.7,29.30,ENE,67,0.0,-999.0,85,-99.99,,,0.05,Acu-Link.com,2013-09-30 09:58:00,
2013-09-30 03:13:00,50.0,45.7,29.31,WSW,247,0.0,-999.0,85,-99.99,,,0.05,Acu-Link.com,2013-09-30 10:13:00,
2013-09-30 03:29:00,50.0,45.7,29.33,ESE,112,1.7,-999.0,85,-99.99,,,0.05,Acu-Link.com,2013-09-30 10:29:00,
2013-09-30 03:45:00,49.8,45.5,29.33,SSE,157,3.2,-999.0,85,-99.99,,,0.05,Acu-Link.com,2013-09-30 10:45:00,
2013-09-30 04:00:00,50.0,44.4,29.34,South,180,1.7,-999.0,81,-99.99,,,0.05,Acu-Link.com,2013-09-30 11:00:00,
2013-09-30 04:15:00,49.3,43.7,29.36,NNE,22,2.2,-999.0,81,-99.99,,,0.05,Acu-Link.com,2013-09-30 11:15:00,
2013-09-30 04:30:00,49.3,43.4,29.37,West,270,3.7,-999.0,80,-99.99,,,0.05,Acu-Link.com,2013-09-30 11:30:00,
2013-09-30 04:45:00,49.3,42.7,29.40,SSE,157,1.7,-999.0,78,-99.99,,,0.05,Acu-Link.com,2013-09-30 11:45:00,
2013-09-30 05:02:00,48.9,42.7,29.46,SE,135,2.7,-999.0,79,-99.99,,,0.05,Acu-Link.com,2013-09-30 12:02:00,
2013-09-30 05:17:00,46.8,39.6,29.47,South,180,3.7,-999.0,76,-99.99,,,0.05,Acu-Link.com,2013-09-30 12:17:00,
2013-09-30 05:32:00,46.4,39.6,29.47,SE,135,4.2,-999.0,77,-99.99,,,0.05,Acu-Link.com,2013-09-30 12:32:00,
2013-09-30 05:47:00,46.4,39.6,29.48,ESE,112,6.3,-999.0,77,-99.99,,,0.05,Acu-Link.com,2013-09-30 12:47:00,
2013-09-30 06:02:00,46.0,37.1,29.49,ESE,112,3.2,-999.0,71,-99.99,,,0.05,Acu-Link.com,2013-09-30 13:02:00,
2013-09-30 06:18:00,45.3,36.5,29.49,NNE,22,2.2,-999.0,71,-99.99,,,0.05,Acu-Link.com,2013-09-30 13:18:00,
2013-09-30 06:33:00,45.0,36.2,29.50,ESE,112,1.7,-999.0,71,-99.99,,,0.05,Acu-Link.com,2013-09-30 13:33:00,
2013-09-30 06:48:00,45.1,35.9,29.50,WNW,292,4.2,-999.0,70,-99.99,,,0.05,Acu-Link.com,2013-09-30 13:48:00,
2013-09-30 07:03:00,45.5,36.7,29.50,SE,135,5.8,-999.0,71,-99.99,,,0.05,Acu-Link.com,2013-09-30 14:03:00,
2013-09-30 07:18:00,45.9,37.0,29.52,NNE,22,4.2,-999.0,71,-99.99,,,0.05,Acu-Link.com,2013-09-30 14:18:00,
2013-09-30 07:34:00,46.9,37.3,29.51,WSW,247,2.2,-999.0,69,-99.99,,,0.05,Acu-Link.com,2013-09-30 14:34:00,
2013-09-30 07:49:00,47.7,37.3,29.52,NNE,22,3.2,-999.0,67,-99.99,,,0.05,Acu-Link.com,2013-09-30 14:49:00,
2013-09-30 08:04:00,48.0,37.6,29.53,WSW,247,3.7,-999.0,67,-99.99,,,0.05,Acu-Link.com,2013-09-30 15:04:00,
2013-09-30 08:19:00,49.3,37.6,29.53,NE,45,3.2,-999.0,64,-99.99,,,0.05,Acu-Link.com,2013-09-30 15:19:00,
2013-09-30 08:35:00,50.4,38.3,29.54,West,270,5.3,-999.0,63,-99.99,,,0.05,Acu-Link.com,2013-09-30 15:35:00,
2013-09-30 08:50:00,51.3,38.7,29.55,SSW,202,2.2,-999.0,62,-99.99,,,0.05,Acu-Link.com,2013-09-30 15:50:00,
2013-09-30 09:05:00,51.4,38.8,29.56,SSE,157,6.3,-999.0,62,-99.99,,,0.05,Acu-Link.com,2013-09-30 16:05:00,
2013-09-30 09:20:00,52.0,38.6,29.57,NE,45,2.2,-999.0,60,-99.99,,,0.05,Acu-Link.com,2013-09-30 16:20:00,
2013-09-30 09:35:00,51.6,38.2,29.57,NW,315,4.2,-999.0,60,-99.99,,,0.05,Acu-Link.com,2013-09-30 16:35:00,
2013-09-30 09:51:00,51.4,38.4,29.57,SSW,202,9.4,-999.0,61,-99.99,,,0.05,Acu-Link.com,2013-09-30 16:51:00,
2013-09-30 10:06:00,51.3,38.3,29.58,NNE,22,5.3,-999.0,61,-99.99,,,0.05,Acu-Link.com,2013-09-30 17:06:00,
2013-09-30 10:21:00,52.0,39.0,29.58,NNE,22,2.7,-999.0,61,-99.99,,,0.05,Acu-Link.com,2013-09-30 17:21:00,
2013-09-30 10:36:00,52.5,38.6,29.58,ESE,112,5.8,-999.0,59,-99.99,,,0.05,Acu-Link.com,2013-09-30 17:36:00,
2013-09-30 10:51:00,52.7,39.2,29.59,East,90,2.2,-999.0,60,-99.99,,,0.05,Acu-Link.com,2013-09-30 17:51:00,
2013-09-30 11:07:00,53.8,39.4,29.59,West,270,4.7,-999.0,58,-99.99,,,0.05,Acu-Link.com,2013-09-30 18:07:00,
2013-09-30 11:22:00,54.1,39.7,29.59,ENE,67,2.2,-999.0,58,-99.99,,,0.05,Acu-Link.com,2013-09-30 18:22:00,
2013-09-30 11:37:00,55.6,40.2,29.59,West,270,4.7,-999.0,56,-99.99,,,0.05,Acu-Link.com,2013-09-30 18:37:00,
2013-09-30 11:53:00,55.8,40.3,29.59,West,270,1.7,-999.0,56,-99.99,,,0.05,Acu-Link.com,2013-09-30 18:53:00,
2013-09-30 12:08:00,55.4,40.0,29.60,WNW,292,6.8,-999.0,56,-99.99,,,0.05,Acu-Link.com,2013-09-30 19:08:00,
2013-09-30 12:23:00,56.1,40.2,29.60,West,270,3.2,-999.0,55,-99.99,,,0.05,Acu-Link.com,2013-09-30 19:23:00,
2013-09-30 12:38:00,56.8,40.8,29.62,West,270,2.7,-999.0,55,-99.99,,,0.05,Acu-Link.com,2013-09-30 19:38:00,
2013-09-30 12:53:00,57.4,40.9,29.62,West,270,6.8,-999.0,54,-99.99,,,0.05,Acu-Link.com,2013-09-30 19:53:00,
2013-09-30 13:08:00,57.2,41.6,29.62,WSW,247,3.7,-999.0,56,-99.99,,,0.05,Acu-Link.com,2013-09-30 20:08:00,
2013-09-30 13:24:00,60.4,43.2,29.61,NNW,337,7.3,-999.0,53,-99.99,,,0.05,Acu-Link.com,2013-09-30 20:24:00,
2013-09-30 13:39:00,60.6,42.4,29.62,SW,225,5.3,-999.0,51,-99.99,,,0.05,Acu-Link.com,2013-09-30 20:39:00,
2013-09-30 13:54:00,60.6,42.4,29.61,SSW,202,4.7,-999.0,51,-99.99,,,0.05,Acu-Link.com,2013-09-30 20:54:00,
2013-09-30 14:09:00,61.7,42.3,29.63,SSW,202,8.9,-999.0,49,-99.99,,,0.05,Acu-Link.com,2013-09-30 21:09:00,
2013-09-30 14:24:00,59.9,41.2,29.63,ESE,112,6.3,-999.0,50,-99.99,,,0.05,Acu-Link.com,2013-09-30 21:24:00,
2013-09-30 14:39:00,62.4,42.4,29.64,West,270,3.2,-999.0,48,-99.99,,,0.05,Acu-Link.com,2013-09-30 21:39:00,
2013-09-30 14:55:00,63.1,41.4,29.64,West,270,3.7,-999.0,45,-99.99,,,0.05,Acu-Link.com,2013-09-30 21:55:00,
2013-09-30 15:10:00,62.2,41.2,29.65,NW,315,4.7,-999.0,46,-99.99,,,0.05,Acu-Link.com,2013-09-30 22:10:00,
2013-09-30 15:25:00,60.1,40.9,29.66,WSW,247,2.7,-999.0,49,-99.99,,,0.05,Acu-Link.com,2013-09-30 22:25:00,
2013-09-30 15:40:00,59.2,41.1,29.67,SSW,202,6.8,-999.0,51,-99.99,,,0.05,Acu-Link.com,2013-09-30 22:40:00,
2013-09-30 15:56:00,58.8,40.7,29.68,ESE,112,3.2,-999.0,51,-99.99,,,0.05,Acu-Link.com,2013-09-30 22:56:00,
2013-09-30 16:11:00,58.5,40.4,29.67,WSW,247,2.7,-999.0,51,-99.99,,,0.05,Acu-Link.com,2013-09-30 23:11:00,
2013-09-30 16:26:00,58.3,40.3,29.68,NNW,337,4.2,-999.0,51,-99.99,,,0.05,Acu-Link.com,2013-09-30 23:26:00,
2013-09-30 16:42:00,57.6,40.1,29.68,WNW,292,2.2,-999.0,52,-99.99,,,0.05,Acu-Link.com,2013-09-30 23:42:00,
2013-09-30 16:57:00,57.6,40.1,29.68,North,0,2.7,-999.0,52,-99.99,,,0.05,Acu-Link.com,2013-09-30 23:57:00,
2013-09-30 17:12:00,57.4,40.9,29.69,West,270,2.7,-999.0,54,-99.99,,,0.05,Acu-Link.com,2013-10-01 00:12:00,
2013-09-30 17:27:00,57.0,40.5,29.69,East,90,3.2,-999.0,54,-99.99,,,0.05,Acu-Link.com,2013-10-01 00:27:00,
2013-09-30 17:43:00,56.3,40.3,29.68,NW,315,1.1,-999.0,55,-99.99,,,0.05,Acu-Link.com,2013-10-01 00:43:00,
2013-09-30 17:58:00,55.6,40.2,29.69,West,270,2.2,-999.0,56,-99.99,,,0.05,Acu-Link.com,2013-10-01 00:58:00,
2013-09-30 18:13:00,54.9,40.0,29.68,West,270,2.2,-999.0,57,-99.99,,,0.05,Acu-Link.com,2013-10-01 01:13:00,
2013-09-30 18:28:00,54.5,39.6,29.69,WSW,247,4.2,-999.0,57,-99.99,,,0.05,Acu-Link.com,2013-10-01 01:28:00,
2013-09-30 18:44:00,53.8,38.9,29.70,SW,225,1.7,-999.0,57,-99.99,,,0.05,Acu-Link.com,2013-10-01 01:44:00,
2013-09-30 18:59:00,53.6,39.2,29.70,NNE,22,1.7,-999.0,58,-99.99,,,0.05,Acu-Link.com,2013-10-01 01:59:00,
2013-09-30 19:14:00,53.8,38.9,29.71,SSE,157,2.2,-999.0,57,-99.99,,,0.05,Acu-Link.com,2013-10-01 02:14:00,
2013-09-30 19:29:00,53.8,38.9,29.72,NE,45,1.7,-999.0,57,-99.99,,,0.05,Acu-Link.com,2013-10-01 02:29:00,
2013-09-30 19:45:00,53.8,38.9,29.72,NW,315,2.2,-999.0,57,-99.99,,,0.05,Acu-Link.com,2013-10-01 02:45:00,
2013-09-30 20:00:00,53.6,38.7,29.73,SW,225,5.3,-999.0,57,-99.99,,,0.05,Acu-Link.com,2013-10-01 03:00:00,
2013-09-30 20:15:00,53.1,38.3,29.73,WSW,247,5.3,-999.0,57,-99.99,,,0.05,Acu-Link.com,2013-10-01 03:15:00,
2013-09-30 20:31:00,52.3,38.0,29.74,ESE,112,3.2,-999.0,58,-99.99,,,0.05,Acu-Link.com,2013-10-01 03:31:00,
2013-09-30 20:46:00,51.6,37.7,29.74,ESE,112,6.3,-999.0,59,-99.99,,,0.05,Acu-Link.com,2013-10-01 03:46:00,
2013-09-30 21:01:00,51.3,37.5,29.74,SSW,202,2.2,-999.0,59,-99.99,,,0.05,Acu-Link.com,2013-10-01 04:01:00,
2013-09-30 21:16:00,50.9,37.5,29.75,WNW,292,1.7,-999.0,60,-99.99,,,0.05,Acu-Link.com,2013-10-01 04:16:00,
2013-09-30 21:31:00,50.9,37.5,29.75,SSE,157,5.8,-999.0,60,-99.99,,,0.05,Acu-Link.com,2013-10-01 04:31:00,
2013-09-30 21:47:00,51.3,37.9,29.76,SW,225,5.3,-999.0,60,-99.99,,,0.05,Acu-Link.com,2013-10-01 04:47:00,
2013-09-30 22:02:00,51.4,38.4,29.77,WNW,292,0.0,-999.0,61,-99.99,,,0.05,Acu-Link.com,2013-10-01 05:02:00,
2013-09-30 22:17:00,51.1,38.1,29.77,ESE,112,2.2,-999.0,61,-99.99,,,0.05,Acu-Link.com,2013-10-01 05:17:00,
2013-09-30 22:33:00,50.5,37.6,29.77,NNW,337,1.1,-999.0,61,-99.99,,,0.05,Acu-Link.com,2013-10-01 05:33:00,
2013-09-30 23:03:00,49.5,37.4,29.78,WNW,292,3.2,-999.0,63,-99.99,,,0.05,Acu-Link.com,2013-10-01 06:03:00,
2013-09-30 23:18:00,48.9,36.9,29.78,SSE,157,1.7,-999.0,63,-99.99,,,0.05,Acu-Link.com,2013-10-01 06:18:00,
2013-09-30 23:34:00,48.2,36.6,29.78,SSE,157,4.2,-999.0,64,-99.99,,,0.05,Acu-Link.com,2013-10-01 06:34:00,
2013-09-30 23:49:00,47.7,36.5,29.79,NNW,337,2.2,-999.0,65,-99.99,,,0.05,Acu-Link.com,2013-10-01 06:49:00,